This demonstration page uses our WeatherBlox Daily Observations layout. Learn more.

Left ArrowRight Arrow

41.12389, -100.76542

Hourly Observations for May 18, 2022

Temp ( °F °C ) Dew Point ( °F °C ) Humidity (%) Winds ( mph kmh ) Pressure ( in mb ) Visibility ( mi km ) Precip ( " mm )
12:53 am 00:53 Clear 61 16.1 52 11.1 72 72 VRB 3 6 29.87 1011 10 16 0.00 0.00
1:53 am 01:53 Mostly Clear 57 13.9 52 11.1 83 83 Calm 29.87 1012 10 16 0.00 0.00
2:53 am 02:53 Clear 55 12.8 52 11.1 90 90 W 6 9 29.88 1012 10 16 0.00 0.00
3:53 am 03:53 Clear 56 13.3 51 10.6 84 84 Calm 29.87 1012 10 16 0.00 0.00
4:53 am 04:53 Clear 54 12.2 49 9.4 83 83 WNW 6 9 29.88 1012 10 16 0.00 0.00
5:53 am 05:53 Clear 55 12.8 49 9.4 80 80 SW 5 7 29.90 1013 10 16 0.00 0.00
6:53 am 06:53 Sunny 53 11.7 48 8.9 83 83 Calm 29.91 1013 10 16 0.00 0.00
7:53 am 07:53 Sunny 58 14.4 52 11.1 81 81 WNW 6 9 29.93 1014 10 16 0.00 0.00
8:53 am 08:53 Sunny 64 17.8 52 11.1 65 65 W 7 11 29.93 1014 10 16 0.00 0.00
9:53 am 09:53 Sunny 69 20.6 53 11.7 57 57 W 7 11 29.93 1014 10 16 0.00 0.00
10:53 am 10:53 Sunny 75 23.9 49 9.4 40 40 WSW 5 7 29.91 1013 10 16 0.00 0.00
11:53 am 11:53 Sunny 78 25.6 44 6.7 30 30 NNW 3 6 29.91 1013 10 16 0.00 0.00
12:53 pm 12:53 Sunny 80 26.7 49 9.4 34 34 W 6 9 29.89 1012 10 16 0.00 0.00
1:53 pm 13:53 Sunny 82 27.8 49 9.4 32 32 W 3 6 29.86 1011 10 16 0.00 0.00
2:53 pm 14:53 Sunny 84 28.9 50 10 31 31 W 12 19 29.83 1010 10 16 0.00 0.00
3:53 pm 15:53 Mostly Sunny 86 30 50 10 29 29 W 8 13 29.80 1009 10 16 0.00 0.00
4:53 pm 16:53 Sunny 86 30 45 7.2 24 24 Calm 29.77 1008 10 16 0.00 0.00
5:53 pm 17:53 Sunny 86 30 48 8.9 27 27 SSW 9 15 29.74 1007 10 16 0.00 0.00
6:53 pm 18:53 Sunny 85 29.4 46 7.8 26 26 W 12 19 29.72 1006 10 16 0.00 0.00
7:53 pm 19:53 Sunny 81 27.2 49 9.4 33 33 WSW 8 13 29.70 1006 10 16 0.00 0.00
8:53 pm 20:53 Sunny 74 23.3 45 7.2 36 36 NW 3 6 29.72 1006 10 16 0.00 0.00
9:53 pm 21:53 Clear 65 18.3 42 5.6 43 43 Calm 29.72 1007 10 16 0.00 0.00
10:53 pm 22:53 Clear 64 17.8 47 8.3 54 54 SE 13 20 29.74 1007 10 16 0.00 0.00
11:53 pm 23:53 Clear 70 21.1 50 10 49 49 S 6 9 29.69 1005 10 16 0.00 0.00

Powered by AerisWeather